Miscellaneous Local Product
Issued by NWS Hastings, NE

Home | Current Version | Previous Version | Graphics & Text | Print | Product List | Glossary On
Versions: 1 2 3 4 5 6 7 8 9 10 11 12 13 14 15 16 17 18 19 20 21 22 23 24 25 26 27 28 29 30 31 32 33 34 35 36 37 38 39 40 41 42 43 44 45 46 47 48 49 50
208
AXUS43 KGID 051502
MISGRI

GID CWA HOURLY WEATHER ROUNDUP
NATIONAL WEATHER SERVICE HASTINGS NE
900 AM CST FRI FEB 05 2016

NOTE: "FAIR" INDICATES FEW OR NO CLOUDS BELOW 12,000 FEET WITH NO
SIGNIFICANT WEATHER AND/OR OBSTRUCTIONS TO VISIBILITY.

...SOUTH CENTRAL NEBRASKA...

CITY           SKY/WX    TMP DP  RH WIND       PRES   REMARKS
GRAND ISLAND   LGT SNOW  27  25  92 S12       30.26S FOG     WCI  17
HASTINGS       LGT SNOW  26  23  88 SW13      30.26S VSB 1   WCI  15
ORD            SUNNY     23  21  92 E3        30.20S FOG
YORK           MIX PCPN  25  23  93 S12       30.29S WCI  14
AURORA         LGT SNOW  24  24  96 S10       30.27S WCI  14
LEXINGTON      CLOUDY    33  29  87 SW7       30.23S WCI  27
HOLDREGE       LGT SNOW  26  24  91 SW10      30.26R WCI  16
HEBRON         LGT SNOW  25  22  89 S13       30.34F WCI  13

...NEBRASKA PANHANDLE...

CITY           SKY/WX    TMP DP  RH WIND       PRES   REMARKS
CHADRON        CLOUDY    31  23  72 W22G31    30.22S WCI  18
ALLIANCE       CLEAR     19  14  81 W12       30.21R WCI   7
SCOTTSBLUFF    CLEAR     15   8  73 NW8       30.28R WCI   4
SIDNEY         CLEAR     19  12  74 W15       30.26R WCI   5

...WESTERN AND NORTH CENTRAL NEBRASKA...

CITY           SKY/WX    TMP DP  RH WIND       PRES   REMARKS
VALENTINE      PTSUNNY   29  23  78 W7        30.17R WCI  22
AINSWORTH      CLOUDY    29  24  81 W7        30.17R WCI  22
ONEILL         SUNNY     26  23  91 SW8       30.17S WCI  17
BROKEN BOW     SUNNY     29  26  89 W8        30.19S WCI  21
IMPERIAL       SUNNY     26  17  68 W12       30.25R WCI  16
NORTH PLATTE   SUNNY     27  20  75 W10       30.22R WCI  17
MCCOOK         CLOUDY    32  28  85 W12       30.27R WCI  23

...EASTERN NEBRASKA...

CITY           SKY/WX    TMP DP  RH WIND       PRES   REMARKS
NORFOLK        CLOUDY    25  21  85 S20       30.24R FOG     WCI  11
SO SIOUX CITY  CLOUDY    18  13  80 E10       30.30S WCI   6
TEKAMAH        LGT SNOW  20  17  88 S8        30.35S FOG     WCI  10
COLUMBUS       CLOUDY    25  16  68 S14       30.29S WCI  13
ALBION         LGT SNOW  24  22  89 S7        30.24S WCI  16
OMAHA EPPLEY   CLOUDY    24  20  84 S10       30.37S WCI  14
OFFUTT AFB     CLOUDY    23  22  99 SE7       30.36F WCI  14
MILLARD        CLOUDY    22  19  86 SE3       30.36F
LINCOLN        LGT SNOW  23  19  85 S9        30.36S VSB 1   WCI  13
NEBRASKA CITY  CLOUDY    24  21  90 S9        30.37F WCI  14
BEATRICE       CLOUDY    26  22  85 S8        30.37S WCI  17
FALLS CITY     CLOUDY    25  21  85 SE5       30.41R WCI  19

...NORTHERN KANSAS...

CITY           SKY/WX    TMP DP  RH WIND       PRES   REMARKS
GOODLAND       CLOUDY    28  25  88 W9        30.29R WCI  19
HILL CITY      CLOUDY    26  19  74 W3        30.33S
NORTON         LGT SNOW  30  25  80 SW8       30.29S WCI  23
SMITH CENTER   CLOUDY    21  19  93 CALM      30.34F
BELOIT         CLOUDY    23  19  86 SW5       30.37S WCI  17
HAYS           CLOUDY    25  12  58 NW6       30.34R WCI  18
RUSSELL        CLOUDY    25  21  85 CALM      30.32F
CONCORDIA      CLOUDY    25  19  78 SW5       30.37R WCI  19
SALINA         CLOUDY    27  21  78 S3        30.40S
TOPEKA         CLOUDY    27  21  78 CALM      30.43R



USA.gov is the U.S. government's official web portal to all federal, state and local government web resources and services.